Time[GMT],temperature[C](50m),salinity[psu](50m),sigma_t[kg/m^3](50m),conductivity[msiemens/cm](50m)
2005-05-21 00:00,4.92,31.616,25.002,30.477
2005-05-21 01:00,4.95,31.613,24.997,30.498
2005-05-21 02:00,4.92,31.610,24.998,30.467
2005-05-21 03:00,4.94,31.566,24.960,30.452
2005-05-21 04:00,4.87,31.587,24.984,30.410
2005-05-21 05:00,4.88,31.583,24.980,30.417
2005-05-21 06:00,4.93,31.495,24.904,30.382
2005-05-21 07:00,4.88,31.486,24.903,30.329
2005-05-21 08:00,4.85,31.427,24.859,30.255
2005-05-21 09:00,4.97,31.534,24.932,30.441
2005-05-21 10:00,4.86,31.605,24.999,30.420
2005-05-21 11:00,4.99,31.516,24.915,30.447
2005-05-21 12:00,4.93,31.522,24.927,30.402
2005-05-21 13:00,4.91,31.500,24.911,30.369
2005-05-21 14:00,4.91,31.564,24.961,30.426
2005-05-21 15:00,4.92,31.474,24.889,30.355
2005-05-21 16:00,5.01,31.378,24.804,30.342
2005-05-21 17:00,4.87,31.427,24.858,30.266
2005-05-21 18:00,4.78,31.370,24.822,30.143
2005-05-21 19:00,4.76,31.389,24.839,30.144
2005-05-21 20:00,4.85,31.455,24.882,30.278
2005-05-21 21:00,4.86,31.482,24.903,30.306
2005-05-21 22:00,4.73,31.395,24.847,30.126
2005-05-21 23:00,4.78,31.486,24.914,30.246
2005-05-22 00:00,4.90,31.506,24.917,30.361
2005-05-22 01:00,4.93,31.475,24.889,30.357
2005-05-22 02:00,4.91,31.475,24.891,30.346
2005-05-22 03:00,4.91,31.416,24.846,30.289
2005-05-22 04:00,4.76,31.367,24.822,30.125
2005-05-22 05:00,5.06,31.247,24.695,30.265
2005-05-22 06:00,5.14,31.237,24.677,30.329
2005-05-22 07:00,5.40,31.113,24.551,30.431
2005-05-22 08:00,5.31,31.106,24.556,30.350
2005-05-22 09:00,5.19,31.179,24.627,30.315
2005-05-22 10:00,5.09,31.211,24.663,30.263
2005-05-22 11:00,5.09,31.211,24.663,30.257
2005-05-22 12:00,5.03,31.254,24.703,30.251
2005-05-22 13:00,5.03,31.283,24.727,30.273
2005-05-22 14:00,5.02,31.299,24.740,30.284
2005-05-22 15:00,5.02,31.309,24.748,30.293
2005-05-22 16:00,5.02,31.263,24.712,30.247
2005-05-22 17:00,5.02,31.218,24.676,30.210
2005-05-22 18:00,5.02,31.180,24.646,30.178
2005-05-22 19:00,5.01,31.204,24.666,30.186
2005-05-22 20:00,4.99,31.222,24.682,30.192
2005-05-22 21:00,4.98,31.256,24.711,30.209
2005-05-22 22:00,4.98,31.269,24.721,30.219
2005-05-22 23:00,5.01,31.263,24.713,30.244
2005-05-23 00:00,4.96,31.304,24.751,30.238
2005-05-23 01:00,4.97,31.317,24.760,30.252
2005-05-23 02:00,4.95,31.316,24.761,30.242
2005-05-23 03:00,4.97,31.325,24.767,30.263
2005-05-23 04:00,4.96,31.294,24.742,30.228
2005-05-23 05:00,4.94,31.306,24.754,30.224
2005-05-23 06:00,4.99,31.324,24.763,30.278
2005-05-23 07:00,4.95,31.385,24.816,30.303
2005-05-23 08:00,4.95,31.406,24.833,30.318
2005-05-23 09:00,4.95,31.403,24.830,30.316
2005-05-23 10:00,4.93,31.462,24.879,30.353
2005-05-23 11:00,4.93,31.470,24.886,30.355
2005-05-23 12:00,4.93,31.472,24.888,30.354
2005-05-23 13:00,4.97,31.410,24.833,30.334
2005-05-23 14:00,4.95,31.439,24.858,30.347
2005-05-23 15:00,4.96,31.438,24.857,30.351
2005-05-23 16:00,4.97,31.415,24.838,30.340
2005-05-23 17:00,4.97,31.402,24.827,30.329
2005-05-23 18:00,4.98,31.376,24.806,30.315
2005-05-23 19:00,4.97,31.418,24.840,30.342
2005-05-23 20:00,4.95,31.559,24.953,30.455
2005-05-23 21:00,4.96,31.525,24.926,30.427
2005-05-23 22:00,4.96,31.521,24.923,30.424
2005-05-23 23:00,4.96,31.525,24.926,30.427
2005-05-24 00:00,4.97,31.463,24.875,30.386
2005-05-24 01:00,4.97,31.473,24.883,30.392
2005-05-24 02:00,4.97,31.483,24.892,30.398
2005-05-24 03:00,4.97,31.436,24.854,30.363
2005-05-24 04:00,4.98,31.408,24.831,30.344
2005-05-24 05:00,5.00,31.354,24.786,30.313
2005-05-24 06:00,4.99,31.393,24.818,30.340
2005-05-24 07:00,5.01,31.359,24.789,30.324
2005-05-24 08:00,5.00,31.375,24.803,30.333
2005-05-24 09:00,5.02,31.331,24.766,30.308
2005-05-24 10:00,5.01,31.467,24.874,30.416
2005-05-24 11:00,5.02,31.716,25.070,30.649
2005-05-24 12:00,4.97,31.675,25.042,30.572
2005-05-24 13:00,4.95,31.678,25.048,30.553
2005-05-24 14:00,4.96,31.771,25.121,30.642
2005-05-24 15:00,4.95,31.716,25.078,30.590
2005-05-24 16:00,4.96,31.717,25.078,30.594
2005-05-24 17:00,4.97,31.699,25.063,30.587
2005-05-24 18:00,4.95,31.708,25.072,30.576
2005-05-24 19:00,4.96,31.578,24.968,30.472
2005-05-24 20:00,4.98,31.504,24.907,30.426
2005-05-24 21:00,5.01,31.414,24.832,30.374
2005-05-24 22:00,5.02,31.386,24.810,30.355
2005-05-24 23:00,5.02,31.375,24.800,30.349
2005-05-25 00:00,5.02,31.381,24.805,30.351
2005-05-25 01:00,5.00,31.442,24.855,30.391
2005-05-25 02:00,5.01,31.465,24.873,30.414
2005-05-25 03:00,5.01,31.433,24.847,30.389
2005-05-25 04:00,5.02,31.442,24.854,30.408
2005-05-25 05:00,5.01,31.500,24.901,30.447
2005-05-25 06:00,4.95,31.643,25.020,30.527
2005-05-25 07:00,4.96,31.658,25.032,30.542
2005-05-25 08:00,4.92,31.747,25.105,30.592
2005-05-25 09:00,4.93,31.709,25.075,30.563
2005-05-25 10:00,4.92,31.728,25.091,30.574
2005-05-25 11:00,4.93,31.692,25.061,30.553
2005-05-25 12:00,4.91,31.749,25.108,30.586
2005-05-25 13:00,4.91,31.760,25.118,30.592
2005-05-25 14:00,4.90,31.783,25.136,30.606
2005-05-25 15:00,4.90,31.779,25.133,30.604
2005-05-25 16:00,4.89,31.809,25.158,30.616
2005-05-25 17:00,4.87,31.826,25.174,30.617
2005-05-25 18:00,4.88,31.800,25.152,30.605
2005-05-25 19:00,4.91,31.741,25.102,30.578
2005-05-25 20:00,4.94,31.665,25.038,30.537
2005-05-25 21:00,5.03,31.391,24.812,30.370
2005-05-25 22:00,5.03,31.345,24.775,30.333
2005-05-25 23:00,5.02,31.401,24.821,30.373
2005-05-26 00:00,5.04,31.394,24.814,30.379
2005-05-26 01:00,5.02,31.498,24.898,30.454
2005-05-26 02:00,5.01,31.526,24.922,30.469
2005-05-26 03:00,5.00,31.539,24.932,30.474
2005-05-26 04:00,5.00,31.534,24.929,30.471
2005-05-26 05:00,5.00,31.545,24.937,30.476
2005-05-26 06:00,5.01,31.523,24.919,30.465
2005-05-26 07:00,5.01,31.498,24.898,30.451
2005-05-26 08:00,5.01,31.499,24.899,30.451
2005-05-26 09:00,5.02,31.490,24.892,30.450
2005-05-26 10:00,5.04,31.425,24.838,30.406
2005-05-26 11:00,5.06,31.347,24.775,30.353
2005-05-26 12:00,5.08,31.235,24.684,30.272
2005-05-26 13:00,5.08,31.204,24.658,30.245
2005-05-26 14:00,5.05,31.294,24.732,30.305
2005-05-26 15:00,5.05,31.297,24.735,30.307
2005-05-26 16:00,5.00,31.455,24.866,30.403
2005-05-26 17:00,4.95,31.600,24.986,30.486
2005-05-26 18:00,4.94,31.620,25.003,30.498
2005-05-26 19:00,4.97,31.528,24.926,30.444
2005-05-26 20:00,4.97,31.534,24.932,30.444
2005-05-26 21:00,4.99,31.523,24.921,30.452
2005-05-26 22:00,5.04,31.398,24.816,30.385
2005-05-26 23:00,5.05,31.374,24.796,30.374
2005-05-27 00:00,5.05,31.417,24.830,30.408
2005-05-27 01:00,5.03,31.457,24.864,30.429
2005-05-27 02:00,4.99,31.514,24.914,30.446
2005-05-27 03:00,4.95,31.580,24.970,30.472
2005-05-27 04:00,4.90,31.672,25.049,30.506
2005-05-27 05:00,4.87,31.731,25.099,30.531
2005-05-27 06:00,4.90,31.697,25.068,30.531
2005-05-27 07:00,4.89,31.742,25.106,30.558
2005-05-27 08:00,4.95,31.586,24.975,30.476
2005-05-27 09:00,5.01,31.473,24.880,30.422
2005-05-27 10:00,5.00,31.440,24.853,30.390
2005-05-27 11:00,5.04,31.334,24.767,30.326
2005-05-27 12:00,5.03,31.349,24.778,30.337
2005-05-27 13:00,5.03,31.372,24.798,30.351
2005-05-27 14:00,5.01,31.424,24.840,30.385
2005-05-27 15:00,5.00,31.461,24.871,30.404
2005-05-27 16:00,4.97,31.537,24.934,30.452
2005-05-27 17:00,4.97,31.548,24.943,30.460
2005-05-27 18:00,4.95,31.600,24.986,30.488
2005-05-27 19:00,4.89,31.713,25.083,30.532
2005-05-27 20:00,4.95,31.640,25.018,30.523
2005-05-27 21:00,4.92,31.669,25.044,30.521
2005-05-27 22:00,4.96,31.617,24.999,30.507
2005-05-27 23:00,4.95,31.615,24.998,30.501
2005-05-28 00:00,4.95,31.621,25.003,30.503
2005-05-28 01:00,4.95,31.628,25.009,30.509
2005-05-28 02:00,4.97,31.631,25.009,30.530
2005-05-28 03:00,4.97,31.624,25.003,30.522
2005-05-28 04:00,4.98,31.700,25.063,30.596
2005-05-28 05:00,4.97,31.760,25.111,30.640
2005-05-28 06:00,5.08,31.689,25.042,30.675
2005-05-28 07:00,5.02,31.753,25.100,30.678
2005-05-28 08:00,5.02,31.663,25.028,30.603
2005-05-28 09:00,4.99,31.658,25.028,30.569
2005-05-28 10:00,4.97,31.587,24.974,30.488
2005-05-28 11:00,5.02,31.458,24.866,30.418
2005-05-28 12:00,5.00,31.433,24.848,30.385
2005-05-28 13:00,5.01,31.443,24.856,30.399
2005-05-28 14:00,5.00,31.484,24.889,30.428
2005-05-28 15:00,5.00,31.486,24.890,30.427
2005-05-28 16:00,4.99,31.507,24.907,30.442
2005-05-28 17:00,4.99,31.553,24.945,30.475
2005-05-28 18:00,4.98,31.578,24.966,30.489
2005-05-28 19:00,4.98,31.599,24.983,30.509
2005-05-28 20:00,4.97,31.602,24.985,30.505
2005-05-28 21:00,4.98,31.586,24.972,30.497
2005-05-28 22:00,4.97,31.582,24.969,30.490
2005-05-28 23:00,4.91,31.675,25.050,30.517
2005-05-29 00:00,4.93,31.624,25.007,30.494
2005-05-29 01:00,4.97,31.677,25.046,30.566
2005-05-29 02:00,5.09,31.674,25.029,30.670
2005-05-29 03:00,4.95,31.701,25.066,30.578
2005-05-29 04:00,4.98,31.695,25.058,30.594
2005-05-29 05:00,4.85,31.727,25.097,30.512
2005-05-29 06:00,4.84,31.727,25.099,30.505
2005-05-29 07:00,4.87,31.723,25.092,30.527
2005-05-29 08:00,4.87,31.724,25.093,30.528
2005-05-29 09:00,4.85,31.722,25.094,30.510
2005-05-29 10:00,4.93,31.677,25.050,30.538
2005-05-29 11:00,5.01,31.662,25.029,30.592
2005-05-29 12:00,4.99,31.615,24.994,30.532
2005-05-29 13:00,4.99,31.597,24.980,30.517
2005-05-29 14:00,5.01,31.504,24.904,30.454
2005-05-29 15:00,5.00,31.563,24.951,30.497
2005-05-29 16:00,5.00,31.567,24.955,30.498
2005-05-29 17:00,5.00,31.528,24.923,30.467
2005-05-29 18:00,5.00,31.535,24.929,30.468
2005-05-29 19:00,4.99,31.539,24.933,30.466
2005-05-29 20:00,4.98,31.547,24.940,30.468
2005-05-29 21:00,4.99,31.548,24.941,30.475
2005-05-29 22:00,4.99,31.577,24.963,30.499
2005-05-29 23:00,5.01,31.522,24.917,30.469
2005-05-30 00:00,5.03,31.509,24.905,30.477
2005-05-30 01:00,5.03,31.497,24.896,30.462
2005-05-30 02:00,5.07,31.444,24.850,30.446
2005-05-30 03:00,5.02,31.527,24.920,30.481
2005-05-30 04:00,5.02,31.569,24.955,30.514
2005-05-30 05:00,5.01,31.603,24.982,30.540
2005-05-30 06:00,5.00,31.644,25.016,30.566
2005-05-30 07:00,4.99,31.652,25.022,30.567
2005-05-30 08:00,4.98,31.672,25.040,30.573
2005-05-30 09:00,4.93,31.637,25.017,30.506
2005-05-30 10:00,4.95,31.606,24.991,30.491
2005-05-30 11:00,4.93,31.695,25.063,30.554
2005-05-30 12:00,5.01,31.597,24.978,30.531
2005-05-30 13:00,4.90,31.666,25.044,30.506
2005-05-30 14:00,4.96,31.612,24.995,30.504
2005-05-30 15:00,4.94,31.638,25.017,30.512
2005-05-30 16:00,4.94,31.651,25.028,30.520
2005-05-30 17:00,4.95,31.659,25.033,30.538
2005-05-30 18:00,4.87,31.702,25.076,30.506
2005-05-30 19:00,4.87,31.729,25.097,30.529
2005-05-30 20:00,4.88,31.739,25.103,30.549
2005-05-30 21:00,4.97,31.715,25.076,30.601
2005-05-30 22:00,4.89,31.733,25.098,30.552
2005-05-30 23:00,4.98,31.702,25.064,30.603
2005-05-31 00:00,5.03,31.671,25.033,30.617
2005-05-31 01:00,4.97,31.647,25.022,30.540
2005-05-31 02:00,4.98,31.608,24.990,30.515
2005-05-31 03:00,5.07,31.581,24.957,30.572
2005-05-31 04:00,5.04,31.543,24.932,30.508
2005-05-31 05:00,5.04,31.557,24.943,30.521
2005-05-31 06:00,5.04,31.552,24.938,30.516
2005-05-31 07:00,5.07,31.604,24.976,30.593
2005-05-31 08:00,5.00,31.629,25.004,30.553
2005-05-31 09:00,4.94,31.676,25.047,30.544
2005-05-31 10:00,4.92,31.679,25.052,30.534
2005-05-31 11:00,5.08,31.635,24.999,30.626
2005-05-31 12:00,5.01,31.575,24.960,30.517
2005-05-31 13:00,5.00,31.541,24.934,30.476
2005-05-31 14:00,5.00,31.543,24.936,30.475
2005-05-31 15:00,5.05,31.502,24.898,30.484
2005-05-31 16:00,5.07,31.457,24.860,30.457
2005-05-31 17:00,5.06,31.455,24.859,30.452
2005-05-31 18:00,5.06,31.439,24.846,30.437
2005-05-31 19:00,5.06,31.496,24.892,30.483
2005-05-31 20:00,5.02,31.485,24.888,30.442
2005-05-31 21:00,5.01,31.500,24.901,30.448
2005-05-31 22:00,4.99,31.501,24.903,30.431
2005-05-31 23:00,5.01,31.514,24.912,30.460
2005-06-01 00:00,5.01,31.506,24.905,30.456
2005-06-01 01:00,5.02,31.526,24.920,30.476
2005-06-01 02:00,5.04,31.466,24.870,30.445
2005-06-01 03:00,5.19,31.429,24.824,30.538
2005-06-01 04:00,5.05,31.441,24.849,30.428
2005-06-01 05:00,5.05,31.412,24.827,30.403
2005-06-01 06:00,5.01,31.517,24.914,30.459
2005-06-01 07:00,4.96,31.570,24.961,30.471
2005-06-01 08:00,4.96,31.575,24.965,30.476
2005-06-01 09:00,4.96,31.582,24.971,30.476
2005-06-01 10:00,4.94,31.602,24.989,30.480
2005-06-01 11:00,4.99,31.646,25.019,30.559
2005-06-01 12:00,5.04,31.670,25.032,30.623
2005-06-01 13:00,5.05,31.632,25.001,30.598
2005-06-01 14:00,5.13,31.599,24.966,30.634
2005-06-01 15:00,5.17,31.535,24.911,30.608
2005-06-01 16:00,5.02,31.496,24.897,30.451
2005-06-01 17:00,5.06,31.449,24.854,30.444
2005-06-01 18:00,5.07,31.411,24.823,30.421
2005-06-01 19:00,5.06,31.425,24.836,30.425
2005-06-01 20:00,5.04,31.466,24.871,30.444
2005-06-01 21:00,5.03,31.449,24.858,30.419
2005-06-01 22:00,5.18,31.549,24.921,30.634
2005-06-01 23:00,5.18,31.515,24.894,30.603
2005-06-02 00:00,5.09,31.480,24.876,30.496
2005-06-02 01:00,5.16,31.523,24.903,30.592
2005-06-02 02:00,5.05,31.483,24.884,30.463
2005-06-02 03:00,5.03,31.517,24.913,30.476
2005-06-02 04:00,5.01,31.515,24.912,30.463
2005-06-02 05:00,5.05,31.463,24.867,30.448
2005-06-02 06:00,5.04,31.474,24.876,30.454
2005-06-02 07:00,5.01,31.513,24.910,30.464
2005-06-02 08:00,5.01,31.515,24.913,30.461
2005-06-02 09:00,5.25,31.529,24.897,30.674
2005-06-02 10:00,5.21,31.522,24.896,30.633
2005-06-02 11:00,5.13,31.591,24.959,30.628
2005-06-02 12:00,5.07,31.542,24.927,30.535
2005-06-02 13:00,5.05,31.570,24.951,30.546
2005-06-02 14:00,5.04,31.530,24.921,30.500
2005-06-02 15:00,5.05,31.527,24.918,30.504
2005-06-02 16:00,5.08,31.547,24.930,30.551
2005-06-02 17:00,5.14,31.504,24.889,30.564
2005-06-02 18:00,5.13,31.534,24.915,30.577
2005-06-02 19:00,5.12,31.519,24.904,30.553
2005-06-02 20:00,5.19,31.488,24.871,30.590
2005-06-02 21:00,5.04,31.530,24.921,30.503
2005-06-02 22:00,5.03,31.528,24.920,30.490
2005-06-02 23:00,5.05,31.507,24.902,30.484
2005-06-03 00:00,5.04,31.539,24.929,30.505
2005-06-03 01:00,5.03,31.552,24.939,30.515
2005-06-03 02:00,5.04,31.552,24.939,30.517
2005-06-03 03:00,5.04,31.544,24.932,30.511
2005-06-03 04:00,5.04,31.515,24.909,30.489
2005-06-03 05:00,5.08,31.519,24.909,30.520
2005-06-03 06:00,5.11,31.516,24.902,30.547
2005-06-03 07:00,5.11,31.540,24.922,30.562
2005-06-03 08:00,5.13,31.496,24.884,30.543
2005-06-03 09:00,5.05,31.610,24.983,30.580
2005-06-03 10:00,5.06,31.579,24.958,30.560
2005-06-03 11:00,5.09,31.587,24.960,30.594
2005-06-03 12:00,5.06,31.548,24.934,30.529
2005-06-03 13:00,5.06,31.548,24.933,30.530
2005-06-03 14:00,5.07,31.622,24.991,30.605
2005-06-03 15:00,5.09,31.608,24.977,30.609
2005-06-03 16:00,5.07,31.633,25.000,30.613
2005-06-03 17:00,5.08,31.565,24.945,30.562
2005-06-03 18:00,5.09,31.599,24.971,30.599
2005-06-03 19:00,5.08,31.581,24.957,30.578
2005-06-03 20:00,5.08,31.535,24.921,30.539
2005-06-03 21:00,5.08,31.576,24.953,30.574
2005-06-03 22:00,5.07,31.613,24.983,30.598
2005-06-03 23:00,5.08,31.583,24.959,30.581
2005-06-04 00:00,5.10,31.557,24.936,30.570
2005-06-04 01:00,5.10,31.591,24.963,30.600
2005-06-04 02:00,5.09,31.578,24.953,30.586
2005-06-04 03:00,5.09,31.598,24.970,30.598
2005-06-04 04:00,5.17,31.505,24.888,30.584
2005-06-04 05:00,5.13,31.543,24.922,30.582
2005-06-04 06:00,5.14,31.515,24.898,30.570
2005-06-04 07:00,5.13,31.522,24.905,30.565
2005-06-04 08:00,5.07,31.575,24.954,30.563
2005-06-04 09:00,5.05,31.604,24.978,30.574
2005-06-04 10:00,5.08,31.584,24.959,30.583
2005-06-04 11:00,5.04,31.652,25.018,30.605
2005-06-04 12:00,5.06,31.627,24.996,30.598
2005-06-04 13:00,5.02,31.648,25.016,30.586
2005-06-04 14:00,5.07,31.610,24.981,30.598
2005-06-04 15:00,5.01,31.695,25.055,30.617
2005-06-04 16:00,5.00,31.706,25.065,30.619
2005-06-04 17:00,4.98,31.756,25.107,30.646
2005-06-04 18:00,5.05,31.620,24.991,30.583
2005-06-04 19:00,4.98,31.712,25.072,30.608
2005-06-04 20:00,4.97,31.755,25.107,30.635
2005-06-04 21:00,5.01,31.659,25.027,30.587
2005-06-04 22:00,4.97,31.749,25.102,30.633
2005-06-04 23:00,4.97,31.779,25.127,30.656
2005-06-05 00:00,4.99,31.709,25.068,30.618
2005-06-05 01:00,4.99,31.700,25.061,30.608
2005-06-05 02:00,5.04,31.727,25.077,30.669
2005-06-05 03:00,5.07,31.729,25.076,30.695
2005-06-05 04:00,4.97,31.806,25.147,30.680
2005-06-05 05:00,5.01,31.784,25.126,30.697
2005-06-05 06:00,5.08,31.719,25.067,30.696
2005-06-05 07:00,5.11,31.678,25.031,30.689
2005-06-05 08:00,5.05,31.744,25.089,30.697
2005-06-05 09:00,5.04,31.765,25.106,30.708
2005-06-05 10:00,5.09,31.718,25.065,30.706
2005-06-05 11:00,5.01,31.790,25.130,30.701
2005-06-05 12:00,4.97,31.840,25.175,30.708
2005-06-05 13:00,4.95,31.859,25.191,30.714
2005-06-05 14:00,5.01,31.776,25.119,30.689
2005-06-05 15:00,5.03,31.767,25.109,30.701
2005-06-05 16:00,5.00,31.780,25.123,30.687
2005-06-05 17:00,5.07,31.721,25.069,30.696
2005-06-05 18:00,5.07,31.724,25.071,30.695
2005-06-05 19:00,5.08,31.722,25.069,30.698
2005-06-05 20:00,5.08,31.706,25.055,30.688
2005-06-05 21:00,5.08,31.689,25.043,30.669
2005-06-05 22:00,5.05,31.727,25.076,30.676
2005-06-05 23:00,5.14,31.630,24.989,30.669
2005-06-06 00:00,5.04,31.753,25.098,30.695
2005-06-06 01:00,5.03,31.770,25.112,30.700
2005-06-06 02:00,5.02,31.777,25.118,30.701
2005-06-06 03:00,5.02,31.780,25.122,30.701
2005-06-06 04:00,5.04,31.761,25.104,30.698
2005-06-06 05:00,5.10,31.707,25.055,30.701
2005-06-06 06:00,5.07,31.724,25.071,30.696
2005-06-06 07:00,5.09,31.704,25.054,30.691
2005-06-06 08:00,5.06,31.717,25.067,30.680
2005-06-06 09:00,5.10,31.685,25.038,30.682
2005-06-06 10:00,5.07,31.733,25.079,30.699
2005-06-06 11:00,5.02,31.772,25.115,30.694
2005-06-06 12:00,5.01,31.793,25.133,30.700
2005-06-06 13:00,5.00,31.788,25.130,30.692
2005-06-06 14:00,5.05,31.738,25.085,30.690
2005-06-06 15:00,5.03,31.765,25.108,30.694
2005-06-06 16:00,5.02,31.785,25.125,30.706
2005-06-06 17:00,5.19,31.750,25.078,30.820
2005-06-06 18:00,5.20,31.761,25.086,30.839
2005-06-06 19:00,5.25,31.762,25.082,30.876
2005-06-06 20:00,5.16,31.783,25.108,30.819
2005-06-06 21:00,5.10,31.797,25.126,30.785
2005-06-06 22:00,5.04,31.825,25.155,30.755
2005-06-06 23:00,5.03,31.834,25.164,30.754
2005-06-07 00:00,5.05,31.826,25.154,30.769
2005-06-07 01:00,5.00,31.855,25.182,30.751
2005-06-07 02:00,5.20,31.748,25.076,30.824
2005-06-07 03:00,5.14,31.765,25.096,30.789
2005-06-07 04:00,5.07,31.796,25.128,30.758
2005-06-07 05:00,5.09,31.783,25.116,30.767
2005-06-07 06:00,5.16,31.761,25.091,30.797
2005-06-07 07:00,5.15,31.757,25.089,30.789
2005-06-07 08:00,5.21,31.716,25.050,30.801
2005-06-07 09:00,5.10,31.689,25.040,30.691
2005-06-07 10:00,5.11,31.676,25.029,30.689
2005-06-07 11:00,5.09,31.697,25.048,30.688
2005-06-07 12:00,5.08,31.726,25.072,30.706
2005-06-07 13:00,5.06,31.746,25.090,30.705
2005-06-07 14:00,5.05,31.762,25.104,30.712
2005-06-07 15:00,5.09,31.760,25.098,30.745
2005-06-07 16:00,5.12,31.741,25.079,30.755
2005-06-07 17:00,5.25,31.729,25.056,30.846
2005-06-07 18:00,5.29,31.720,25.044,30.871
2005-06-07 19:00,5.33,31.716,25.037,30.903
2005-06-07 20:00,5.34,31.711,25.032,30.907
2005-06-07 21:00,5.44,31.706,25.016,30.986
2005-06-07 22:00,5.51,31.698,25.001,31.041
2005-06-07 23:00,5.46,31.702,25.011,31.001
2005-06-08 00:00,5.44,31.701,25.013,30.981
2005-06-08 01:00,5.41,31.704,25.018,30.961
2005-06-08 02:00,5.39,31.696,25.014,30.938
2005-06-08 03:00,5.36,31.696,25.017,30.913
2005-06-08 04:00,5.32,31.698,25.023,30.883
2005-06-08 05:00,5.33,31.703,25.026,30.894
2005-06-08 06:00,5.35,31.702,25.024,30.906
2005-06-08 07:00,5.31,31.703,25.028,30.878
2005-06-08 08:00,5.47,31.687,24.998,30.996
2005-06-08 09:00,5.13,31.638,24.997,30.669
2005-06-08 10:00,5.14,31.654,25.008,30.694
2005-06-08 11:00,5.14,31.622,24.984,30.660
2005-06-08 12:00,5.14,31.637,24.995,30.674
2005-06-08 13:00,5.14,31.637,24.995,30.678
2005-06-08 14:00,5.14,31.673,25.023,30.704
2005-06-08 15:00,5.23,31.682,25.020,30.794
2005-06-08 16:00,5.32,31.697,25.023,30.878
2005-06-08 17:00,5.34,31.696,25.019,30.898
2005-06-08 18:00,5.33,31.699,25.022,30.891
2005-06-08 19:00,5.24,31.683,25.021,30.800
2005-06-08 20:00,5.16,31.660,25.010,30.717
2005-06-08 21:00,5.31,31.708,25.032,30.879
2005-06-08 22:00,5.42,31.692,25.008,30.956
2005-06-08 23:00,5.35,31.690,25.013,30.898
2005-06-09 00:00,5.27,31.696,25.027,30.839
2005-06-09 01:00,5.22,31.773,25.094,30.858
2005-06-09 02:00,5.16,31.798,25.119,30.837
2005-06-09 03:00,5.31,31.742,25.059,30.912
2005-06-09 04:00,5.31,31.722,25.043,30.893
2005-06-09 05:00,5.27,31.747,25.068,30.883
2005-06-09 06:00,5.23,31.739,25.065,30.843
2005-06-09 07:00,5.39,31.682,25.003,30.920
2005-06-09 08:00,5.38,31.674,24.997,30.910
2005-06-09 09:00,5.36,31.666,24.993,30.887
2005-06-09 10:00,5.36,31.644,24.976,30.861
2005-06-09 11:00,5.35,31.647,24.979,30.860
2005-06-09 12:00,5.31,31.667,24.999,30.846
2005-06-09 13:00,5.31,31.662,24.996,30.836
2005-06-09 14:00,5.19,31.733,25.065,30.804
2005-06-09 15:00,5.24,31.712,25.044,30.821
2005-06-09 16:00,5.15,31.782,25.109,30.811
2005-06-09 17:00,5.31,31.679,25.009,30.855
2005-06-09 18:00,5.28,31.698,25.028,30.849
2005-06-09 19:00,5.28,31.717,25.042,30.866
2005-06-09 20:00,5.29,31.688,25.019,30.842
2005-06-09 21:00,5.30,31.674,25.007,30.841
2005-06-09 22:00,5.37,31.635,24.968,30.866
2005-06-09 23:00,5.31,31.661,24.995,30.839
2005-06-10 00:00,5.30,31.659,24.994,30.831
2005-06-10 01:00,5.29,31.671,25.005,30.828
2005-06-10 02:00,5.28,31.671,25.006,30.826
2005-06-10 03:00,5.28,31.704,25.032,30.852
2005-06-10 04:00,5.29,31.710,25.036,30.867
2005-06-10 05:00,5.38,31.688,25.008,30.924
2005-06-10 06:00,5.41,31.660,24.983,30.919
2005-06-10 07:00,5.37,31.686,25.008,30.912
2005-06-10 08:00,5.45,31.639,24.962,30.933
2005-06-10 09:00,5.51,31.564,24.896,30.915
2005-06-10 10:00,5.51,31.561,24.894,30.914
2005-06-10 11:00,5.38,31.634,24.966,30.876
2005-06-10 12:00,5.48,31.616,24.940,30.944
2005-06-10 13:00,5.32,31.670,25.000,30.858
2005-06-10 14:00,5.42,31.646,24.972,30.914
2005-06-10 15:00,5.41,31.656,24.980,30.914
2005-06-10 16:00,5.41,31.657,24.980,30.918
2005-06-10 17:00,5.43,31.643,24.968,30.921
2005-06-10 18:00,5.54,31.528,24.864,30.909
2005-06-10 19:00,5.45,31.628,24.953,30.924
2005-06-10 20:00,5.46,31.658,24.976,30.962
2005-06-10 21:00,5.18,31.888,25.189,30.933
2005-06-10 22:00,5.18,31.901,25.200,30.937
2005-06-10 23:00,5.15,31.969,25.256,30.978
2005-06-11 00:00,5.25,31.979,25.253,31.066
2005-06-11 01:00,5.16,32.042,25.313,31.050
2005-06-11 02:00,5.14,32.042,25.316,31.032
2005-06-11 03:00,5.10,32.053,25.329,31.004
2005-06-11 04:00,5.10,31.969,25.262,30.936
2005-06-11 05:00,5.74,31.784,25.043,31.309
2005-06-11 06:00,5.64,31.829,25.090,31.261
2005-06-11 07:00,5.61,31.837,25.100,31.248
2005-06-11 08:00,5.26,31.916,25.202,31.024
2005-06-11 09:00,4.97,31.988,25.291,30.843
2005-06-11 10:00,5.25,31.955,25.234,31.049
2005-06-11 11:00,5.26,31.902,25.192,31.005
2005-06-11 12:00,5.26,31.902,25.191,31.012
2005-06-11 13:00,5.13,32.101,25.363,31.076
2005-06-11 14:00,5.13,32.098,25.361,31.075
2005-06-11 15:00,5.11,32.024,25.305,30.989
2005-06-11 16:00,5.07,31.906,25.215,30.853
2005-06-11 17:00,5.35,31.859,25.147,31.049
2005-06-11 18:00,5.12,32.054,25.327,31.024
2005-06-11 19:00,5.00,31.992,25.291,30.869
2005-06-11 20:00,4.99,31.977,25.280,30.849
2005-06-11 21:00,5.22,31.952,25.235,31.021
2005-06-11 22:00,5.10,31.997,25.284,30.958
2005-06-11 23:00,5.20,31.959,25.243,31.004
2005-06-12 00:00,5.20,31.966,25.249,31.016
2005-06-12 01:00,5.23,31.982,25.258,31.056
2005-06-12 02:00,5.16,32.036,25.308,31.045
2005-06-12 03:00,5.15,32.019,25.296,31.023
2005-06-12 04:00,5.16,31.964,25.251,30.981
2005-06-12 05:00,5.17,32.008,25.286,31.023
2005-06-12 06:00,5.16,31.939,25.232,30.955
2005-06-12 07:00,5.13,31.971,25.260,30.961
2005-06-12 08:00,5.27,31.911,25.197,31.026
2005-06-12 09:00,5.16,31.942,25.233,30.964
2005-06-12 10:00,5.21,31.947,25.232,31.008
2005-06-12 11:00,5.09,31.867,25.183,30.838
2005-06-12 12:00,5.21,31.945,25.231,31.004
2005-06-12 13:00,5.24,31.925,25.212,31.011
2005-06-12 14:00,5.25,31.915,25.203,31.013